GW2440 Weather Reports


Display with metric or nautical units.
time (UTC)temp
F
wind
direction
speed
MPH
gust
MPH
rain 1hr
in
rain 24hr
in
rain mn
in
humidity
%
barometer
mb
20260506051127 65 164 0.0 0.0 0.00 0.00 0.00 91 1018.6
20260506050626 65 164 0.0 0.0 0.00 0.00 0.00 91 1018.9
20260506050122 65 164 0.0 0.0 0.00 0.00 0.00 90 1018.9
20260506045115 65 165 0.0 0.0 0.00 0.00 0.00 90 1018.9
20260506044613 65 165 0.0 0.0 0.00 0.00 0.00 90 1018.6
20260506044110 66 165 0.0 0.0 0.00 0.00 0.00 89 1018.9
20260506043607 66 165 0.0 0.0 0.00 0.00 0.00 88 1018.9
20260506043105 66 165 0.0 0.0 0.00 0.00 0.00 87 1018.6
20260506042604 66 165 0.0 0.0 0.00 0.00 0.00 87 1018.9
20260506042102 67 165 0.0 0.0 0.00 0.00 0.00 86 1018.6
20260506041601 67 165 0.0 0.0 0.00 0.00 0.00 85 1018.6
20260506041057 67 165 0.0 0.0 0.00 0.00 0.00 84 1018.6
20260506040555 68 165 0.0 0.0 0.00 0.00 0.00 83 1018.6
20260506040051 68 165 0.0 0.0 0.00 0.00 0.00 82 1018.6
20260506035548 68 165 0.0 0.0 0.00 0.00 0.00 82 1018.6
20260506035044 68 165 0.0 0.0 0.00 0.00 0.00 82 1018.6
20260506034542 68 164 0.0 0.0 0.00 0.00 0.00 81 1018.2
20260506034038 69 164 0.0 0.0 0.00 0.00 0.00 80 1018.6
20260506033536 69 163 0.0 0.0 0.00 0.00 0.00 80 1018.6
20260506033033 69 162 0.0 0.0 0.00 0.00 0.00 80 1018.6
20260506032530 68 144 0.0 0.0 0.00 0.00 0.00 80 1018.6
20260506032027 69 144 0.0 0.0 0.00 0.00 0.00 79 1018.2
20260506031525 69 158 0.0 0.0 0.00 0.00 0.00 78 1018.6
20260506031021 69 156 0.0 0.0 0.00 0.00 0.00 78 1018.2
20260506030520 69 156 0.0 0.0 0.00 0.00 0.00 78 1018.2
20260506030016 69 115 0.0 0.0 0.00 0.00 0.00 77 1018.2
20260506025513 69 115 0.0 0.0 0.00 0.00 0.00 77 1018.2
20260506025009 69 143 0.0 0.0 0.00 0.00 0.00 76 1018.2
20260506024507 69 142 0.0 0.0 0.00 0.00 0.00 76 1018.2
20260506024002 69 156 0.0 0.0 0.00 0.00 0.00 76 1018.2
20260506023459 70 171 0.0 0.0 0.00 0.00 0.00 75 1018.2
20260506022956 70 107 0.0 0.0 0.00 0.00 0.00 75 1018.6
20260506022454 70 109 0.0 0.0 0.00 0.00 0.00 76 1018.2
20260506021951 70 124 0.0 0.0 0.00 0.00 0.00 75 1018.2
20260506021449 70 87 0.0 0.0 0.00 0.00 0.00 75 1018.2
20260506020945 70 100 0.0 0.0 0.00 0.00 0.00 75 1018.2
20260506020443 71 97 0.0 1.0 0.00 0.00 0.00 75 1018.2
20260506015940 70 77 0.0 0.0 0.00 0.00 0.00 74 1017.9
20260506015438 70 77 0.0 0.0 0.00 0.00 0.00 74 1018.2
20260506014934 70 75 0.0 0.0 0.00 0.00 0.00 74 1018.2
20260506014431 71 73 0.0 0.0 0.00 0.00 0.00 74 1017.9
20260506013928 71 92 0.0 0.0 0.00 0.00 0.00 72 1018.2
20260506013426 71 91 0.0 0.0 0.00 0.00 0.00 71 1017.9
20260506012922 71 93 0.0 0.0 0.00 0.00 0.00 71 1017.9
20260506012418 71 68 0.0 0.0 0.00 0.00 0.00 71 1017.9
20260506011915 72 68 0.0 0.0 0.00 0.00 0.00 71 1017.9
20260506011413 72 69 0.0 1.0 0.00 0.00 0.00 70 1017.9
20260506010909 72 98 1.0 1.0 0.00 0.00 0.00 69 1017.9
20260506010408 73 93 1.0 1.0 0.00 0.00 0.00 69 1017.9
20260506005904 73 110 1.0 1.0 0.00 0.00 0.00 67 1017.9
20260506005402 73 60 3.0 3.0 0.00 0.00 0.00 66 1017.5
20260506004857 73 55 3.0 5.0 0.00 0.00 0.00 66 1017.5
20260506004355 74 68 3.0 3.0 0.00 0.00 0.00 65 1017.5
20260506003851 74 50 3.0 3.0 0.00 0.00 0.00 66 1017.9
20260506003347 74 60 5.0 7.0 0.00 0.00 0.00 66 1017.5
20260506002844 74 77 5.0 7.0 0.00 0.00 0.00 66 1017.5
20260506002340 74 52 2.0 3.0 0.00 0.00 0.00 65 1017.2
20260506001836 74 48 2.0 3.0 0.00 0.00 0.00 64 1017.2
20260506001333 75 56 3.0 5.0 0.00 0.00 0.00 63 1017.5
20260506000830 75 65 3.0 3.0 0.00 0.00 0.00 62 1017.2
20260506000330 75 64 3.0 3.0 0.00 0.00 0.00 61 1017.5
20260505235825 75 73 2.0 2.0 0.00 0.00 0.00 62 1017.2
20260505235322 75 90 3.0 3.0 0.00 0.00 0.00 60 1017.2
20260505234819 76 63 3.0 6.0 0.00 0.00 0.00 59 1017.2
20260505234317 76 50 4.0 5.0 0.00 0.00 0.00 59 1017.2
20260505233813 76 54 3.0 3.0 0.00 0.00 0.00 59 1017.5
20260505233311 76 64 3.0 3.0 0.00 0.00 0.00 57 1016.9
20260505232808 76 56 5.0 7.0 0.00 0.00 0.00 60 1017.2
20260505232306 77 49 5.0 7.0 0.00 0.00 0.00 59 1017.2
20260505231802 77 78 6.0 6.0 0.00 0.00 0.00 59 1017.2
20260505231301 77 38 6.0 8.0 0.00 0.00 0.00 59 1017.2
20260505230758 77 50 8.0 11.0 0.00 0.00 0.00 59 1017.2
20260505230255 77 45 6.0 8.0 0.00 0.00 0.00 60 1017.2
20260505225752 77 98 5.0 6.0 0.00 0.00 0.00 58 1016.9
20260505225249 78 46 6.0 7.0 0.00 0.00 0.00 58 1017.2
20260505224744 78 70 7.0 11.0 0.00 0.00 0.00 57 1016.9
20260505224242 78 93 5.0 6.0 0.00 0.00 0.00 57 1017.2
20260505223739 79 54 7.0 13.0 0.00 0.00 0.00 56 1017.2
20260505223235 79 40 4.0 6.0 0.00 0.00 0.00 56 1016.9
20260505222731 79 52 2.0 3.0 0.00 0.00 0.00 56 1017.2
20260505222227 79 48 7.0 8.0 0.00 0.00 0.00 56 1017.2
20260505221725 79 67 3.0 5.0 0.00 0.00 0.00 58 1017.2
20260505221221 80 37 8.0 11.0 0.00 0.00 0.00 57 1017.2
20260505220718 79 64 5.0 7.0 0.00 0.00 0.00 57 1016.9
20260505220216 80 44 5.0 7.0 0.00 0.00 0.00 56 1016.9
20260505215714 80 25 8.0 13.0 0.00 0.00 0.00 56 1016.9
20260505215212 80 67 7.0 10.0 0.00 0.00 0.00 56 1017.2
20260505214709 80 89 9.0 10.0 0.00 0.00 0.00 55 1017.2
20260505214206 80 109 6.0 7.0 0.00 0.00 0.00 56 1017.2
20260505213704 79 62 5.0 6.0 0.00 0.00 0.00 58 1017.2
20260505213201 79 37 9.0 10.0 0.00 0.00 0.00 58 1016.9
20260505212656 80 65 6.0 7.0 0.00 0.00 0.00 56 1016.9
20260505212154 79 66 9.0 10.0 0.00 0.00 0.00 57 1016.9
20260505211651 79 39 7.0 10.0 0.00 0.00 0.00 58 1017.2
20260505211148 80 21 5.0 7.0 0.00 0.00 0.00 57 1016.9
20260505210645 80 94 4.0 8.0 0.00 0.00 0.00 56 1016.9
20260505210141 80 44 7.0 8.0 0.00 0.00 0.00 57 1016.9
20260505205639 80 52 3.0 5.0 0.00 0.00 0.00 57 1016.9
20260505205137 80 34 4.0 5.0 0.00 0.00 0.00 57 1016.9
20260505204633 81 33 10.0 11.0 0.00 0.00 0.00 56 1016.5
20260505204132 81 52 9.0 13.0 0.00 0.00 0.00 56 1016.9
20260505203628 81 73 6.0 10.0 0.00 0.00 0.00 56 1016.9
20260505203125 80 35 10.0 15.0 0.00 0.00 0.00 57 1016.9
20260505202621 81 70 9.0 11.0 0.00 0.00 0.00 56 1016.9
20260505202117 81 79 9.0 10.0 0.00 0.00 0.00 56 1016.9
20260505201613 82 91 6.0 8.0 0.00 0.00 0.00 54 1016.9
20260505201111 82 50 4.0 6.0 0.00 0.00 0.00 54 1017.2
20260505200609 81 55 5.0 7.0 0.00 0.00 0.00 57 1017.2
20260505200106 81 97 4.0 6.0 0.00 0.00 0.00 55 1017.2
20260505195602 80 46 8.0 9.0 0.00 0.00 0.00 57 1017.2
20260505195100 80 53 9.0 10.0 0.00 0.00 0.00 57 1017.2
20260505194556 81 77 2.0 5.0 0.00 0.00 0.00 56 1017.2
20260505194052 82 69 7.0 11.0 0.00 0.00 0.00 55 1017.5
20260505193549 82 52 9.0 10.0 0.00 0.00 0.00 57 1017.5
20260505193046 81 55 3.0 5.0 0.00 0.00 0.00 57 1017.5
20260505192545 82 49 4.0 7.0 0.00 0.00 0.00 55 1017.2
20260505192042 81 123 3.0 3.0 0.00 0.00 0.00 55 1017.5
20260505191540 82 61 7.0 9.0 0.00 0.00 0.00 56 1017.5
20260505191038 82 61 6.0 7.0 0.00 0.00 0.00 57 1017.5
20260505190532 82 3 4.0 7.0 0.00 0.00 0.00 55 1017.2
20260505190029 81 35 5.0 6.0 0.00 0.00 0.00 57 1017.9
20260505185525 82 43 6.0 7.0 0.00 0.00 0.00 57 1017.9
20260505185022 82 49 4.0 6.0 0.00 0.00 0.00 57 1017.5
20260505184519 82 31 5.0 8.0 0.00 0.00 0.00 55 1017.5
20260505184015 81 46 4.0 6.0 0.00 0.00 0.00 57 1017.9
20260505183512 82 78 1.0 2.0 0.00 0.00 0.00 54 1017.9
20260505183010 81 254 1.0 2.0 0.00 0.00 0.00 56 1017.9
20260505182506 81 136 3.0 3.0 0.00 0.00 0.00 56 1017.9
20260505182003 83 64 2.0 2.0 0.00 0.00 0.00 54 1017.9
20260505181459 82 72 5.0 7.0 0.00 0.00 0.00 55 1017.9
20260505180956 83 148 2.0 3.0 0.00 0.00 0.00 54 1018.2
20260505180452 83 48 10.0 11.0 0.00 0.00 0.00 56 1018.2
20260505175949 82 76 4.0 5.0 0.00 0.00 0.00 54 1018.2
20260505175445 82 105 4.0 5.0 0.00 0.00 0.00 56 1018.2
20260505174942 82 58 10.0 16.0 0.00 0.00 0.00 56 1017.9
20260505174439 82 73 5.0 6.0 0.00 0.00 0.00 56 1018.2
20260505173935 83 74 7.0 9.0 0.00 0.00 0.00 55 1017.9
20260505173432 82 196 1.0 1.0 0.00 0.00 0.00 55 1018.2
20260505172929 82 71 3.0 3.0 0.00 0.00 0.00 55 1018.6
20260505172428 82 151 2.0 3.0 0.00 0.00 0.00 55 1018.2
20260505171926 81 51 5.0 6.0 0.00 0.00 0.00 57 1018.2
20260505171424 80 67 7.0 10.0 0.00 0.00 0.00 58 1018.2
20260505170920 80 75 4.0 5.0 0.00 0.00 0.00 58 1018.6
20260505170417 80 62 2.0 2.0 0.00 0.00 0.00 58 1018.6
20260505165912 80 38 4.0 5.0 0.00 0.00 0.00 58 1018.9
20260505165409 79 57 3.0 3.0 0.00 0.00 0.00 59 1018.6
20260505164904 79 52 3.0 3.0 0.00 0.00 0.00 58 1018.9
20260505164401 79 38 3.0 3.0 0.00 0.00 0.00 58 1018.6
20260505163859 79 54 3.0 5.0 0.00 0.00 0.00 60 1018.6
20260505163358 79 53 4.0 5.0 0.00 0.00 0.00 59 1018.6
20260505162856 80 22 1.0 2.0 0.00 0.00 0.00 59 1018.6
20260505162351 79 32 3.0 3.0 0.00 0.00 0.00 60 1018.6
20260505161849 79 34 6.0 7.0 0.00 0.00 0.00 61 1018.9
20260505161346 79 71 3.0 3.0 0.00 0.00 0.00 60 1018.6
20260505160843 79 87 4.0 6.0 0.00 0.00 0.00 61 1018.6
20260505160341 80 37 3.0 3.0 0.00 0.00 0.00 59 1018.2
20260505153320 79 340 5.0 6.0 0.00 0.00 0.00 60 1018.6
20260505152816 80 53 7.0 8.0 0.00 0.00 0.00 61 1018.6
20260505152314 80 40 3.0 5.0 0.00 0.00 0.00 61 1018.9
20260505151808 80 48 8.0 10.0 0.00 0.00 0.00 61 1018.6
20260505151305 79 146 1.0 2.0 0.00 0.00 0.00 63 1018.6
20260505150802 79 40 4.0 6.0 0.00 0.00 0.00 67 1018.6
20260505150259 80 83 1.0 2.0 0.00 0.00 0.00 66 1018.6
20260505140223 76 55 1.0 2.0 0.00 0.00 0.00 76 1018.2
20260505130147 74 48 2.0 5.0 0.00 0.00 0.00 80 1018.2
20260505124631 73 53 5.0 7.0 0.00 0.00 0.00 83 1018.2
20260505124128 72 61 3.0 3.0 0.00 0.00 0.00 85 1018.2
20260505123623 71 71 3.0 3.0 0.00 0.00 0.00 86 1018.2
20260505123120 71 59 4.0 5.0 0.00 0.00 0.00 86 1018.2
20260505122617 71 74 2.0 2.0 0.00 0.00 0.00 86 1017.9
20260505122115 70 75 1.0 1.0 0.00 0.00 0.00 87 1018.2
20260505121611 70 38 3.0 3.0 0.00 0.00 0.00 88 1017.9
20260505121108 70 75 3.0 5.0 0.00 0.00 0.00 88 1017.9
20260505120604 69 52 4.0 6.0 0.00 0.00 0.00 89 1017.9
20260505120100 69 49 5.0 5.0 0.00 0.00 0.00 90 1017.9
20260505115554 69 49 3.0 3.0 0.00 0.00 0.00 90 1017.9
20260505115052 68 69 1.0 2.0 0.00 0.00 0.00 91 1018.2
20260505114549 68 84 1.0 1.0 0.00 0.00 0.00 92 1017.9
20260505114045 67 79 1.0 1.0 0.00 0.00 0.00 93 1017.9
20260505113542 66 64 2.0 2.0 0.00 0.00 0.00 94 1017.9
20260505113038 66 58 2.0 2.0 0.00 0.00 0.00 95 1017.5
20260505112534 65 52 2.0 2.0 0.00 0.00 0.00 96 1017.5
20260505112032 65 53 2.0 2.0 0.00 0.00 0.00 98 1017.2
20260505111526 64 72 0.0 0.0 0.00 0.00 0.00 99 1017.5
20260505111023 63 73 0.0 0.0 0.00 0.00 0.00 99 1017.2
20260505110519 63 89 0.0 0.0 0.00 0.00 0.00 99 1017.2
20260505101951 62 98 0.0 0.0 0.00 0.00 0.00 99 1017.2
20260505101444 62 97 0.0 0.0 0.00 0.00 0.00 99 1016.9
20260505100940 62 97 0.0 0.0 0.00 0.00 0.00 99 1017.2
20260505100438 62 98 0.0 0.0 0.00 0.00 0.00 99 1016.9
20260505095933 61 98 0.0 0.0 0.00 0.00 0.00 99 1016.9
20260505095430 62 98 0.0 0.0 0.00 0.00 0.00 99 1016.9
20260505094926 61 98 0.0 0.0 0.00 0.00 0.00 99 1016.9
20260505094423 61 99 0.0 0.0 0.00 0.00 0.00 99 1016.9
20260505093919 61 99 0.0 0.0 0.00 0.00 0.00 99 1016.9
20260505093416 61 99 0.0 0.0 0.00 0.00 0.00 99 1016.9
20260505092914 61 99 0.0 0.0 0.00 0.00 0.00 99 1016.9
20260505092412 62 99 0.0 0.0 0.00 0.00 0.00 99 1016.9
20260505091909 62 99 0.0 0.0 0.00 0.00 0.00 99 1016.5
20260505091406 61 99 0.0 0.0 0.00 0.00 0.00 99 1016.5
20260505090904 61 99 0.0 0.0 0.00 0.00 0.00 99 1016.5
20260505090402 61 99 0.0 0.0 0.00 0.00 0.00 99 1016.5
20260505085859 61 99 0.0 0.0 0.00 0.00 0.00 99 1016.5
20260505085357 61 99 0.0 0.0 0.00 0.00 0.00 99 1016.5
20260505084855 61 99 0.0 0.0 0.00 0.00 0.00 99 1016.9
20260505084353 61 99 0.0 0.0 0.00 0.00 0.00 99 1016.9
20260505083850 61 99 0.0 0.0 0.00 0.00 0.00 99 1016.5
20260505083348 61 99 0.0 0.0 0.00 0.00 0.00 99 1016.9
20260505082844 61 99 0.0 0.0 0.00 0.00 0.00 99 1016.2
20260505082340 61 99 0.0 0.0 0.00 0.00 0.00 99 1016.5
20260505081837 61 99 0.0 0.0 0.00 0.00 0.00 99 1016.5
20260505081333 61 99 0.0 0.0 0.00 0.00 0.00 98 1016.5
20260505080830 61 99 0.0 0.0 0.00 0.00 0.00 98 1016.9
20260505080326 61 99 0.0 0.0 0.00 0.00 0.00 98 1016.5
20260505075821 62 99 0.0 0.0 0.00 0.00 0.00 98 1016.5
20260505075319 62 99 0.0 0.0 0.00 0.00 0.00 98 1016.5
20260505074816 62 99 0.0 0.0 0.00 0.00 0.00 98 1016.9
20260505074313 61 99 0.0 0.0 0.00 0.00 0.00 98 1016.5
20260505073811 62 99 0.0 0.0 0.00 0.00 0.00 98 1016.9
20260505073309 62 99 0.0 0.0 0.00 0.00 0.00 98 1017.2
20260505072805 62 99 0.0 0.0 0.00 0.00 0.00 98 1016.9
20260505072301 62 99 0.0 0.0 0.00 0.00 0.00 97 1016.5
20260505071757 62 99 0.0 0.0 0.00 0.00 0.00 97 1016.9
20260505071254 62 99 0.0 0.0 0.00 0.00 0.00 97 1016.9
20260505070752 62 99 0.0 0.0 0.00 0.00 0.00 97 1016.9
20260505070248 62 99 0.0 0.0 0.00 0.00 0.00 96 1016.5
20260505065743 62 99 0.0 0.0 0.00 0.00 0.00 96 1016.9
20260505065240 62 99 0.0 0.0 0.00 0.00 0.00 95 1017.2
20260505064737 62 99 0.0 0.0 0.00 0.00 0.00 95 1016.9
20260505064235 62 99 0.0 0.0 0.00 0.00 0.00 94 1017.2
20260505063732 63 99 0.0 0.0 0.00 0.00 0.00 94 1017.2
20260505063228 63 99 0.0 0.0 0.00 0.00 0.00 94 1016.9
20260505062725 63 99 0.0 0.0 0.00 0.00 0.00 93 1017.2
20260505062223 63 99 0.0 0.0 0.00 0.00 0.00 93 1017.5
20260505061719 64 99 0.0 0.0 0.00 0.00 0.00 92 1017.2
20260505061217 64 99 0.0 0.0 0.00 0.00 0.00 92 1017.2
20260505060715 64 99 0.0 0.0 0.00 0.00 0.00 92 1017.2
20260505060211 64 99 0.0 0.0 0.00 0.00 0.00 92 1017.2
20260505055707 64 99 0.0 0.0 0.00 0.00 0.00 91 1017.5
20260505055203 64 99 0.0 0.0 0.00 0.00 0.00 90 1017.5
20260505054701 64 99 0.0 0.0 0.00 0.00 0.00 90 1017.2
20260505054158 65 99 0.0 0.0 0.00 0.00 0.00 89 1017.5
20260505053656 65 99 0.0 0.0 0.00 0.00 0.00 89 1017.9
20260505053152 65 99 0.0 0.0 0.00 0.00 0.00 89 1017.5